Ontario, OR

1:14 AM MDT on April 20, 2018 (GMT -0600)
Ontario Municipal

Weather History for KONO - November, 2012

Change the Weather History Date:

Thursday, November 22, 2012

  Actual Average Record
Temperature  
Mean Temperature 36 °F 34 °F  
Max Temperature 46 °F 44 °F 61 °F (1974)
Min Temperature 26 °F 25 °F 2 °F (1994)
Degree Days  
Heating Degree Days 29 31  
Month to date heating degree days 481 577  
Since 1 July heating degree days 1000 1170  
Cooling Degree Days 0 0  
Month to date cooling degree days 0 0  
Year to date cooling degree days 1091 852  
Moisture  
Dew Point 28 °F    
Average Humidity 73    
Maximum Humidity 92    
Minimum Humidity 53    
Precipitation  
Precipitation 0.00 in 0.04 in 0.37 in (1981)
Month to date precipitation 0.57 0.78  
Year to date precipitation 7.26 8.06  
Sea Level Pressure  
Sea Level Pressure 30.50 in    
Wind  
Wind Speed 2 mph (WNW)    
Max Wind Speed 12 mph    
Max Gust Speed 13 mph    
Visibility 10 miles    
Events      
T = Trace of Precipitation, MM = Missing Value Source: NWS Daily Summary

Daily Weather History Graph

Daily Weather History Graph

Search for Another Location

Airport or City:

Astronomy

Nov. 22, 2012 Rise Set
Actual Time 7:52 AM MST 5:15 PM MST
Civil Twilight 7:21 AM MST 5:47 PM MST
Nautical Twilight 6:45 AM MST 6:22 PM MST
Astronomical Twilight 6:11 AM MST 6:57 PM MST
Moon 2:12 PM MST (11/22) 2:06 AM MST (11/22)
Length of Visible Light 10h 26m
Length of Day
9h 22m
Waxing Gibbous, 72% of the Moon is Illuminated
Nov 22
Waxing Gibbous
Nov 28
Full
Dec 6
Last Quarter
Dec 13
New
Dec 19
First Quarter

Hourly Weather History & Observations

Time (MST) Temp. Windchill Dew Point Humidity Pressure Visibility Wind Dir Wind Speed Gust Speed Precip Events Conditions
12:53 AM 34.0 °F 28.8 °F 27.0 °F 75% 30.35 in 10.0 mi North 5.8 mph - N/A   Partly Cloudy
1:53 AM 34.0 °F 28.8 °F 28.0 °F 79% 30.36 in 10.0 mi West 5.8 mph - N/A   Clear
2:53 AM 33.1 °F - 28.0 °F 82% 30.38 in 10.0 mi Calm Calm - N/A   Overcast
3:53 AM 34.0 °F - 27.0 °F 75% 30.40 in 10.0 mi Calm Calm - N/A   Clear
4:53 AM 30.9 °F - 27.0 °F 85% 30.42 in 10.0 mi Calm Calm - N/A   Clear
5:53 AM 30.0 °F 23.2 °F 26.1 °F 85% 30.45 in 10.0 mi WSW 6.9 mph - N/A   Clear
6:53 AM 28.9 °F - 26.1 °F 89% 30.46 in 10.0 mi Calm Calm - N/A   Clear
7:53 AM 27.0 °F 23.0 °F 24.1 °F 89% 30.50 in 10.0 mi West 3.5 mph - N/A   Clear
8:53 AM 30.9 °F - 27.0 °F 85% 30.53 in 10.0 mi Calm Calm - N/A   Clear
9:53 AM 34.0 °F - 28.9 °F 82% 30.55 in 10.0 mi Calm Calm - N/A   Clear
10:53 AM 36.0 °F - 30.0 °F 79% 30.56 in 10.0 mi Calm Calm - N/A   Clear
11:53 AM 37.9 °F - 30.0 °F 73% 30.56 in 10.0 mi Calm Calm - N/A   Clear
12:53 PM 42.1 °F - 30.9 °F 65% 30.53 in 9.0 mi Calm Calm - N/A   Clear
1:53 PM 44.1 °F - 30.0 °F 58% 30.52 in 10.0 mi Calm Calm - N/A   Clear
2:53 PM 45.0 °F - 28.0 °F 52% 30.53 in 10.0 mi Calm Calm - N/A   Clear
3:53 PM 45.0 °F 42.6 °F 28.9 °F 53% 30.52 in 10.0 mi North 4.6 mph - N/A   Clear
4:53 PM 44.1 °F - 30.9 °F 60% 30.54 in 10.0 mi Calm Calm - N/A   Clear
5:53 PM 37.9 °F 33.5 °F 28.9 °F 70% 30.55 in 10.0 mi NNW 5.8 mph - N/A   Clear
6:53 PM 37.0 °F 34.5 °F 28.9 °F 73% 30.54 in 10.0 mi NNE 3.5 mph - N/A   Clear
7:53 PM 34.0 °F - 28.0 °F 79% 30.56 in 10.0 mi Calm Calm - N/A   Clear
8:53 PM 32.0 °F 27.5 °F 27.0 °F 82% 30.57 in 10.0 mi WSW 4.6 mph - N/A   Clear
9:53 PM 30.9 °F 27.5 °F 27.0 °F 85% 30.57 in 10.0 mi WNW 3.5 mph - N/A   Clear
10:53 PM 30.0 °F 26.5 °F 27.0 °F 88% 30.57 in 10.0 mi WSW 3.5 mph - N/A   Clear
11:53 PM 30.0 °F 26.5 °F 27.0 °F 88% 30.57 in 10.0 mi WSW 3.5 mph - N/A   Clear